BEIDOU-2 IGSO-3 (C08)

Last updated on Thu Nov 21 2024 00:03:16 GMT+0000 (Coordinated Universal Time)

1 37384U 11013A 24324.67296549 -.00000201 00000+0 00000+0 0 9996 2 37384 61.5830 45.6175 0031660 180.5116 182.9444 1.00269643 49901
UTC large
Height (km)
Speed (km/s)
/
Latitude / Longitude
Inclination (degrees)
Orbital Period (minutes)
Azimuth
Elevation
Range (km)
Doppler Factor

Next 0 passes for location: London (51.5072 / 0.1276)

Sorry there are no passes over London.